Location: Wapato
(46.4478°N, 120.4212°W)
Time: 00:46:55
(UTC+00:00)

Vanguard 1 - Visible Passes

Search period start: 14 May 2026 00:00
Search period end: 24 May 2026 00:00
Orbit: 654 x 3817 km, 34.2° (Epoch: 13 May)

Date Brightness Start Highest point End Pass type
(mag) Time Alt. Az. Time Alt. Az. Time Alt. Az.
14 May 12.7 04:12:40 10° W 04:25:25 48° SSW 04:44:02 13° SE visible
14 May 13.2 06:34:37 10° W 06:48:49 31° SSW 06:56:32 25° S visible
15 May 12.8 04:31:58 10° W 04:44:44 44° SSW 05:01:28 15° SE visible
15 May 13.4 06:54:49 10° W 07:07:57 25° SW 07:13:58 22° SSW visible
16 May 12.9 04:51:22 10° W 05:04:02 39° SSW 05:18:58 17° SSE visible
16 May 13.6 07:15:39 10° WSW 07:27:02 19° SW 07:31:28 18° SSW visible
17 May 13.0 05:10:56 10° W 05:23:20 34° SSW 05:36:32 18° SSE visible
17 May 13.7 07:37:53 10° WSW 07:46:04 14° SW 07:49:03 14° SW visible
18 May 13.2 05:30:45 10° W 05:42:34 28° SSW 05:54:10 17° S visible
19 May 13.4 05:50:57 10° WSW 06:01:48 23° SSW 06:11:51 15° S visible
20 May 12.8 03:48:13 10° WSW 03:58:27 35° SSW 04:14:37 10° SE visible
20 May 13.6 06:11:52 10° WSW 06:21:00 17° SW 06:29:36 13° S visible
21 May 13.0 04:07:47 10° WSW 04:17:44 30° SSW 04:32:50 10° SSE visible
21 May 13.7 06:34:43 10° WSW 06:40:11 12° SW 06:46:19 10° SSW visible
22 May 13.2 04:27:37 10° WSW 04:37:02 24° SSW 04:50:33 10° SSE visible
23 May 13.3 04:47:56 10° WSW 04:56:18 19° SSW 05:07:34 10° S visible
